User: anonymous   Login
Location: Vesunti
(61.5000°N, 22.8333°E)
Time: 07:35:22
(UTC+00:00)
Language:

NOSS 2-2 (D) - Orbit

View from above orbital plane
View from above orbital plane
View from above satellite
View from above satellite

Ground track
Ground track

The orbit data is extracted from the following two-line orbital elements,

1 21808U 91076D   20153.95357859 0.00000000  00000-0  00000-0 0    07
2 21808  63.3394 183.6117 0834634  38.7719 321.2281 13.41341360    04
Epoch (UTC): 01 June 2020 22:53:09
Eccentricity: 0.0834634
inclination: 63.3394°
perigee height: 480 km
apogee height: 1729 km
right ascension of ascending node: 183.6117°
argument of perigee: 38.7719°
revolutions per day: 13.41341360
mean anomaly at epoch: 321.2281°
orbit number at epoch: 0

The dashed part of the orbit path shows where the satellite is in the earth's shadow,  

DLR